Location: Azul
(36.7830°S, 59.8500°W)
Time: 08:16:20
(UTC-03:00)

ISS - Pass Details

Date: 09 April 2020
Orbit: 417 x 419 km, 51.6° (Epoch: 31 May)

Event Time Altitude Azimuth Distance (km) Brightness Sun altitude
Exits shadow 05:55:49 11° 198° (SSW) 1,486 -1.1 -17.7°
Maximum altitude 05:58:11 19° 153° (SSE) 1,103 -1.3 -17.2°
Drops below altitude 10° 06:00:43 10° 105° (ESE) 1,529 0.3 -16.7°
Sets 06:03:15 0° 86° (E) 2,390 1.9 -16.2°
